Météo par heure à Juliopol

Ce jour, 20 Juin, Dimanche

Heure Température Précipitation Vent Pression Humidité
00:00 +22°C° 0 mm 3 m/s 755 mmHg 78%
01:00 +22°C° 0 mm 3 m/s 755 mmHg 79%
02:00 +21°C° 0 mm 3 m/s 755 mmHg 83%
03:00 +20°C° 0 mm 3 m/s 755 mmHg 86%
04:00 +19°C° 0 mm 3 m/s 754 mmHg 90%
05:00 +20°C° 0 mm 3 m/s 754 mmHg 84%
06:00 +22°C° 0 mm 4 m/s 754 mmHg 78%
07:00 +23°C° 0 mm 4 m/s 755 mmHg 71%
08:00 +26°C° 0 mm 4 m/s 755 mmHg 65%
09:00 +27°C° 0 mm 4 m/s 755 mmHg 59%
10:00 +28°C° 0 mm 4 m/s 755 mmHg 53%
11:00 +29°C° 0 mm 5 m/s 754 mmHg 50%
12:00 +30°C° 0 mm 5 m/s 754 mmHg 48%
13:00 +32°C° 0 mm 5 m/s 753 mmHg 46%
14:00 +32°C° 0 mm 5 m/s 753 mmHg 46%
15:00 +32°C° 0 mm 4 m/s 753 mmHg 46%
16:00 +32°C° 0 mm 4 m/s 753 mmHg 46%
17:00 +29°C° 0 mm 3 m/s 753 mmHg 54%
18:00 +28°C° 0 mm 3 m/s 752 mmHg 62%
19:00 +27°C° 0 mm 3 m/s 752 mmHg 69%
20:00 +26°C° 0 mm 3 m/s 752 mmHg 73%
21:00 +24°C° 0 mm 3 m/s 752 mmHg 78%
22:00 +22°C° 0 mm 3 m/s 752 mmHg 82%
23:00 +22°C° 0 mm 3 m/s 752 mmHg 84%

Demain, 21 Juin, Lundi

Heure Température Précipitation Vent Pression Humidité
00:00 +21°C° 0 mm 3 m/s 752 mmHg 86%
01:00 +21°C° 0 mm 3 m/s 751 mmHg 88%
02:00 +20°C° 0 mm 3 m/s 751 mmHg 89%
03:00 +20°C° 0 mm 3 m/s 751 mmHg 89%
04:00 +20°C° 0 mm 3 m/s 751 mmHg 89%
05:00 +21°C° 0 mm 4 m/s 751 mmHg 84%
06:00 +23°C° 0 mm 5 m/s 751 mmHg 78%
07:00 +25°C° 0 mm 5 m/s 751 mmHg 72%
08:00 +26°C° 0 mm 6 m/s 751 mmHg 66%
09:00 +28°C° 0 mm 6 m/s 751 mmHg 60%
10:00 +29°C° 0 mm 6 m/s 751 mmHg 54%
11:00 +30°C° 0 mm 5 m/s 751 mmHg 51%
12:00 +30°C° 0 mm 5 m/s 750 mmHg 48%
13:00 +32°C° 0 mm 5 m/s 750 mmHg 45%
14:00 +32°C° 0 mm 5 m/s 750 mmHg 46%
15:00 +32°C° 0 mm 5 m/s 750 mmHg 47%
16:00 +32°C° 0 mm 5 m/s 749 mmHg 48%
17:00 +29°C° 0 mm 4 m/s 749 mmHg 55%
18:00 +28°C° 0 mm 4 m/s 749 mmHg 62%
19:00 +27°C° 0 mm 4 m/s 749 mmHg 69%
20:00 +25°C° 0 mm 3 m/s 749 mmHg 73%
21:00 +24°C° 0 mm 3 m/s 750 mmHg 77%
22:00 +22°C° 0 mm 3 m/s 750 mmHg 81%
23:00 +22°C° 0.2 mm 3 m/s 750 mmHg 84%

Après-demain, 22 Juin, Mardi

Heure Température Précipitation Vent Pression Humidité
00:00 +21°C° 0.2 mm 2 m/s 750 mmHg 88%
01:00 +21°C° 0.2 mm 2 m/s 749 mmHg 91%
02:00 +21°C° 0 mm 2 m/s 750 mmHg 92%
03:00 +20°C° 0 mm 2 m/s 750 mmHg 93%
04:00 +20°C° 0 mm 2 m/s 750 mmHg 94%
05:00 +21°C° 0.3 mm 2 m/s 750 mmHg 90%
06:00 +23°C° 0.3 mm 2 m/s 750 mmHg 86%
07:00 +24°C° 0.3 mm 2 m/s 751 mmHg 81%
08:00 +26°C° 0 mm 2 m/s 751 mmHg 75%
09:00 +27°C° 0 mm 2 m/s 751 mmHg 70%
10:00 +28°C° 0 mm 2 m/s 751 mmHg 64%
11:00 +29°C° 0 mm 2 m/s 751 mmHg 60%
12:00 +30°C° 0 mm 3 m/s 751 mmHg 57%
13:00 +31°C° 0 mm 3 m/s 751 mmHg 53%
14:00 +31°C° 0 mm 3 m/s 751 mmHg 53%
15:00 +31°C° 0 mm 3 m/s 751 mmHg 54%
16:00 +31°C° 0 mm 3 m/s 751 mmHg 54%
17:00 +29°C° 0.1 mm 3 m/s 751 mmHg 61%
18:00 +28°C° 0.1 mm 2 m/s 751 mmHg 68%
19:00 +27°C° 0.1 mm 2 m/s 752 mmHg 75%
20:00 +25°C° 0 mm 2 m/s 752 mmHg 79%
21:00 +24°C° 0 mm 2 m/s 752 mmHg 84%
22:00 +23°C° 0 mm 2 m/s 752 mmHg 88%
23:00 +21°C° 0 mm 2 m/s 752 mmHg 90%

23 Juin, Mercredi

Heure Température Précipitation Vent Pression Humidité
00:00 +21°C° 0 mm 2 m/s 752 mmHg 92%
01:00 +20°C° 0 mm 2 m/s 752 mmHg 93%
02:00 +21°C° 0 mm 1 m/s 752 mmHg 94%
03:00 +21°C° 0 mm 1 m/s 752 mmHg 94%
04:00 +21°C° 0 mm 1 m/s 752 mmHg 95%
05:00 +21°C° 0 mm 2 m/s 753 mmHg 89%
06:00 +24°C° 0 mm 2 m/s 753 mmHg 82%
07:00 +26°C° 0 mm 2 m/s 753 mmHg 75%
08:00 +27°C° 0 mm 2 m/s 753 mmHg 68%
09:00 +29°C° 0 mm 2 m/s 753 mmHg 61%
10:00 +30°C° 0 mm 2 m/s 753 mmHg 54%
11:00 +31°C° 0 mm 2 m/s 753 mmHg 51%
12:00 +32°C° 0 mm 2 m/s 753 mmHg 49%
13:00 +34°C° 0 mm 2 m/s 753 mmHg 46%
14:00 +32°C° 0.2 mm 2 m/s 753 mmHg 50%
15:00 +32°C° 0.2 mm 2 m/s 752 mmHg 53%
16:00 +31°C° 0.2 mm 2 m/s 752 mmHg 56%
17:00 +29°C° 3.9 mm 2 m/s 753 mmHg 67%
18:00 +26°C° 3.9 mm 2 m/s 753 mmHg 79%
19:00 +22°C° 3.9 mm 3 m/s 754 mmHg 90%
20:00 +21°C° 0.4 mm 3 m/s 755 mmHg 91%
21:00 +21°C° 0.4 mm 4 m/s 755 mmHg 92%
22:00 +20°C° 0.4 mm 4 m/s 755 mmHg 94%
23:00 +19°C° 0 mm 4 m/s 755 mmHg 94%

24 Juin, Jeudi

Heure Température Précipitation Vent Pression Humidité
00:00 +18°C° 0 mm 4 m/s 756 mmHg 94%
01:00 +17°C° 0 mm 4 m/s 756 mmHg 94%
02:00 +16°C° 0 mm 3 m/s 756 mmHg 95%
03:00 +16°C° 0 mm 3 m/s 756 mmHg 96%
04:00 +15°C° 0 mm 2 m/s 756 mmHg 97%
05:00 +16°C° 0 mm 2 m/s 756 mmHg 93%
06:00 +18°C° 0 mm 2 m/s 756 mmHg 90%
07:00 +19°C° 0 mm 2 m/s 756 mmHg 86%
08:00 +21°C° 0 mm 2 m/s 756 mmHg 80%
09:00 +23°C° 0 mm 2 m/s 756 mmHg 74%
10:00 +25°C° 0 mm 2 m/s 756 mmHg 68%
11:00 +26°C° 0 mm 2 m/s 756 mmHg 64%
12:00 +27°C° 0 mm 3 m/s 756 mmHg 61%
13:00 +28°C° 0 mm 3 m/s 756 mmHg 57%
14:00 +27°C° 0.1 mm 3 m/s 756 mmHg 60%
15:00 +27°C° 0.1 mm 3 m/s 755 mmHg 63%
16:00 +26°C° 0.1 mm 3 m/s 755 mmHg 66%
17:00 +25°C° 0.1 mm 3 m/s 755 mmHg 70%
18:00 +25°C° 0.1 mm 3 m/s 755 mmHg 74%
19:00 +24°C° 0.1 mm 3 m/s 755 mmHg 78%
20:00 +21°C° 0.1 mm 3 m/s 755 mmHg 83%
21:00 +20°C° 0.1 mm 3 m/s 755 mmHg 87%
22:00 +19°C° 0.1 mm 3 m/s 755 mmHg 91%
23:00 +19°C° 0 mm 3 m/s 755 mmHg 91%

25 Juin, Vendredi

Heure Température Précipitation Vent Pression Humidité
00:00 +19°C° 0 mm 2 m/s 755 mmHg 92%
01:00 +18°C° 0 mm 2 m/s 755 mmHg 92%
02:00 +18°C° 0 mm 2 m/s 755 mmHg 91%
03:00 +19°C° 0 mm 2 m/s 755 mmHg 91%
04:00 +19°C° 0 mm 2 m/s 755 mmHg 90%
05:00 +19°C° 0 mm 2 m/s 755 mmHg 88%
06:00 +19°C° 0 mm 2 m/s 755 mmHg 87%
07:00 +19°C° 0 mm 2 m/s 755 mmHg 85%
08:00 +20°C° 0 mm 2 m/s 756 mmHg 81%
09:00 +21°C° 0 mm 3 m/s 756 mmHg 78%
10:00 +21°C° 0 mm 3 m/s 756 mmHg 74%
11:00 +22°C° 0.1 mm 3 m/s 756 mmHg 71%
12:00 +22°C° 0.1 mm 3 m/s 756 mmHg 68%
13:00 +24°C° 0.1 mm 3 m/s 756 mmHg 66%
14:00 +24°C° 0 mm 3 m/s 755 mmHg 65%
15:00 +24°C° 0 mm 2 m/s 755 mmHg 64%
16:00 +24°C° 0 mm 2 m/s 755 mmHg 63%
17:00 +24°C° 0 mm 2 m/s 755 mmHg 67%
18:00 +23°C° 0 mm 2 m/s 755 mmHg 70%
19:00 +21°C° 0 mm 2 m/s 754 mmHg 73%
20:00 +20°C° 0 mm 2 m/s 755 mmHg 77%
21:00 +19°C° 0 mm 2 m/s 755 mmHg 80%
22:00 +19°C° 0 mm 2 m/s 755 mmHg 83%
23:00 +18°C° 0 mm 2 m/s 755 mmHg 85%
Voir plus

Nous avons besoin de votre consentement

Meteoprog et ses fournisseurs de services peuvent stocker et accéder à des données personnelles telles que des cookies, des identifiants d'appareils ou d'autres technologies similaires sur votre appareil et traiter ces données pour personnaliser le contenu et les publicités, ainsi que pour fournir des fonctionnalités de médias sociaux et analyser le trafic.

  • Stocker et/ou accéder à des informations sur votre appareil

    Des cookies, des identifiants d'appareils ou d'autres informations peuvent être stockés ou accessibles sur votre appareil aux fins indiquées ci-dessus.

  • Annonces et contenus personnalisés, mesure des annonces et des contenus, connaissance de l'audience et développement de produits

    Les annonces et le contenu peuvent être personnalisés en fonction d'un profil. D'autres données peuvent être ajoutées pour mieux personnaliser les annonces et le contenu. Les performances des publicités et du contenu peuvent être mesurées. Il est possible d'obtenir des informations sur le public qui a vu les publicités et le contenu. Ces données peuvent être utilisées pour développer ou améliorer l'expérience de l'utilisateur, les systèmes et les logiciels.

En cliquant sur "J'accepte", vous autorisez l'utilisation de cookies, des identifiants d'appareils, des balises web ou d'autres technologies similaires. Vos paramètres peuvent être modifiés dans le navigateur de votre appareil.

Dans certains cas, des intérêts légitimes peuvent être invoqués plutôt qu'un consentement. Vous pouvez en savoir plus à ce sujet dans notre Politique de confidentialité et de cookies.